^^
Your Local Weather - Clay, NY Station Historical Data
Daily Summary for February 4, 2017 Units:  English    Metric   Both
« Previous Day
Next Day »
Daily Weekly Monthly Yearly Custom
  High: Low: Average:
Temperature: 27.3 °F 14.9 °F 20.9 °F
Dew Point: 16.2 °F 9.8 °F 12.9 °F
Humidity: 89% 52% 72%
Wind Speed: 7.0mph 0.0mph 2.6mph
Wind Gust: 17.0mph - -
Wind- - West
Pressure: 30.32 in 30.13 in -
Precipitation: 0.11 in    
Historical Graphs
 
 
Tabular Data for February 4, 2017
Time Temperature Dew Point Pressure Wind Wind Speed Wind Gust Humidity Rainfall Rate (Hourly) solar
00:02 18.2 °F 13.1 °F 30.19 in West 4.0 mph 5.0 mph 80% 0.00 in 0 W/m2
00:08 18.3 °F 12.9 °F 30.20 in West 4.0 mph 9.0 mph 79% 0.00 in 0 W/m2
00:14 18.5 °F 12.8 °F 30.20 in NW 5.0 mph 7.0 mph 78% 0.00 in 0 W/m2
00:20 18.7 °F 12.7 °F 30.21 in WSW 5.0 mph 11.0 mph 77% 0.00 in 0 W/m2
00:25 18.8 °F 12.5 °F 30.21 in West 5.0 mph 11.0 mph 76% 0.00 in 0 W/m2
00:32 18.8 °F 12.8 °F 30.21 in West 4.0 mph 4.0 mph 77% 0.00 in 0 W/m2
00:38 18.8 °F 12.8 °F 30.21 in West 4.0 mph 7.0 mph 77% 0.00 in 0 W/m2
00:44 18.7 °F 13.0 °F 30.22 in NW 4.0 mph 7.0 mph 78% 0.00 in 0 W/m2
00:49 18.6 °F 13.2 °F 30.22 in NNW 3.0 mph 3.0 mph 79% 0.00 in 0 W/m2
00:55 18.4 °F 13.8 °F 30.21 in West 3.0 mph 3.0 mph 82% 0.00 in 0 W/m2
01:02 18.1 °F 13.8 °F 30.21 in West 3.0 mph 6.0 mph 83% 0.00 in 0 W/m2
01:08 18.0 °F 14.0 °F 30.21 in NW 4.0 mph 7.0 mph 84% 0.00 in 0 W/m2
01:13 18.0 °F 14.3 °F 30.22 in WNW 3.0 mph 4.0 mph 85% 0.00 in 0 W/m2
01:19 18.0 °F 14.3 °F 30.22 in WNW 2.0 mph 2.0 mph 85% 0.00 in 0 W/m2
01:26 18.0 °F 14.3 °F 30.22 in WNW 2.0 mph 3.0 mph 85% 0.00 in 0 W/m2
01:32 17.9 °F 14.4 °F 30.22 in West 2.0 mph 3.0 mph 86% 0.00 in 0 W/m2
01:38 17.9 °F 14.4 °F 30.22 in West 3.0 mph 3.0 mph 86% 0.00 in 0 W/m2
01:44 17.8 °F 14.6 °F 30.23 in NW 3.0 mph 5.0 mph 87% 0.00 in 0 W/m2
01:50 17.7 °F 14.5 °F 30.23 in NW 3.0 mph 3.0 mph 87% 0.00 in 0 W/m2
01:55 17.7 °F 14.5 °F 30.23 in WNW 3.0 mph 3.0 mph 87% 0.00 in 0 W/m2
02:02 17.6 °F 14.4 °F 30.23 in WSW 3.0 mph 4.0 mph 87% 0.00 in 0 W/m2
02:08 17.6 °F 14.4 °F 30.23 in WNW 2.0 mph 4.0 mph 87% 0.00 in 0 W/m2
02:14 17.6 °F 14.4 °F 30.23 in WNW 3.0 mph 4.0 mph 87% 0.00 in 0 W/m2
02:19 17.5 °F 14.3 °F 30.23 in WNW 3.0 mph 3.0 mph 87% 0.00 in 0 W/m2
02:26 17.6 °F 14.7 °F 30.24 in West 2.0 mph 3.0 mph 88% 0.00 in 0 W/m2
02:32 17.6 °F 14.7 °F 30.24 in West 2.0 mph 3.0 mph 88% 0.00 in 0 W/m2
02:38 17.6 °F 14.7 °F 30.24 in West 2.0 mph 3.0 mph 88% 0.00 in 0 W/m2
02:43 17.6 °F 14.7 °F 30.24 in WSW 2.0 mph 4.0 mph 88% 0.00 in 0 W/m2
02:50 17.6 °F 14.7 °F 30.24 in West 2.0 mph 4.0 mph 88% 0.00 in 0 W/m2
02:56 17.6 °F 14.7 °F 30.24 in West 2.0 mph 4.0 mph 88% 0.00 in 0 W/m2
03:02 17.6 °F 14.7 °F 30.24 in SW 2.0 mph 4.0 mph 88% 0.00 in 0 W/m2
03:08 17.6 °F 14.7 °F 30.24 in WSW 1.0 mph 4.0 mph 88% 0.00 in 0 W/m2
03:14 17.7 °F 14.8 °F 30.24 in West 2.0 mph 2.0 mph 88% 0.00 in 0 W/m2
03:20 17.7 °F 14.8 °F 30.24 in West 2.0 mph 2.0 mph 88% 0.00 in 0 W/m2
03:25 17.7 °F 14.8 °F 30.24 in West 2.0 mph 4.0 mph 88% 0.00 in 0 W/m2
03:32 17.7 °F 14.8 °F 30.25 in West 1.0 mph 2.0 mph 88% 0.00 in 0 W/m2
03:38 17.8 °F 14.8 °F 30.25 in WSW 2.0 mph 3.0 mph 88% 0.00 in 0 W/m2
03:44 17.8 °F 14.8 °F 30.25 in West 2.0 mph 3.0 mph 88% 0.00 in 0 W/m2
03:50 17.9 °F 14.9 °F 30.25 in WNW 2.0 mph 2.0 mph 88% 0.00 in 0 W/m2
03:55 17.9 °F 14.9 °F 30.25 in WSW 2.0 mph 2.0 mph 88% 0.00 in 0 W/m2
04:02 17.9 °F 14.9 °F 30.25 in WNW 1.0 mph 2.0 mph 88% 0.00 in 0 W/m2
04:08 18.0 °F 15.0 °F 30.25 in WSW 1.0 mph 2.0 mph 88% 0.00 in 0 W/m2
04:13 18.0 °F 15.0 °F 30.25 in WSW 1.0 mph 1.0 mph 88% 0.00 in 0 W/m2
04:19 18.1 °F 15.4 °F 30.25 in West 2.0 mph 2.0 mph 89% 0.00 in 0 W/m2
04:26 18.1 °F 15.4 °F 30.26 in WSW 2.0 mph 2.0 mph 89% 0.00 in 0 W/m2
04:32 18.1 °F 15.4 °F 30.26 in West 2.0 mph 3.0 mph 89% 0.00 in 0 W/m2
04:38 18.2 °F 15.5 °F 30.26 in WNW 2.0 mph 3.0 mph 89% 0.00 in 0 W/m2
04:43 18.2 °F 15.5 °F 30.26 in West 2.0 mph 3.0 mph 89% 0.00 in 0 W/m2
04:49 18.2 °F 15.5 °F 30.26 in West 1.0 mph 3.0 mph 89% 0.00 in 0 W/m2
04:55 18.2 °F 15.5 °F 30.26 in WSW 1.0 mph 3.0 mph 89% 0.00 in 0 W/m2
05:02 18.2 °F 15.5 °F 30.26 in WSW 1.0 mph 1.0 mph 89% 0.00 in 0 W/m2
05:08 18.2 °F 15.5 °F 30.26 in WSW 1.0 mph 1.0 mph 89% 0.00 in 0 W/m2
05:14 18.2 °F 15.5 °F 30.26 in Calm   2.0 mph 89% 0.00 in 0 W/m2
05:20 18.2 °F 15.5 °F 30.26 in Calm     89% 0.00 in 0 W/m2
05:25 18.2 °F 15.2 °F 30.26 in West 1.0 mph 4.0 mph 88% 0.00 in 0 W/m2
05:32 18.0 °F 14.8 °F 30.26 in WNW 2.0 mph 2.0 mph 87% 0.00 in 0 W/m2
05:38 17.8 °F 14.6 °F 30.27 in WSW 2.0 mph 4.0 mph 87% 0.00 in 0 W/m2
05:43 17.8 °F 14.3 °F 30.27 in West 1.0 mph 2.0 mph 86% 0.00 in 0 W/m2
05:49 17.6 °F 13.9 °F 30.27 in WSW 2.0 mph 4.0 mph 85% 0.00 in 0 W/m2
05:56 17.4 °F 13.7 °F 30.27 in WSW 2.0 mph 4.0 mph 85% 0.00 in 0 W/m2
06:02 17.3 °F 13.6 °F 30.27 in West 1.0 mph 1.0 mph 85% 0.00 in 0 W/m2
06:08 17.2 °F 13.5 °F 30.27 in West 1.0 mph 1.0 mph 85% 0.00 in 0 W/m2
06:14 17.1 °F 13.1 °F 30.27 in WSW 1.0 mph 2.0 mph 84% 0.00 in 0 W/m2
06:19 17.0 °F 13.0 °F 30.27 in West 1.0 mph 5.0 mph 84% 0.00 in 0 W/m2
06:25 17.0 °F 12.7 °F 30.27 in West 2.0 mph 5.0 mph 83% 0.00 in 0 W/m2
06:32 17.0 °F 12.5 °F 30.27 in WSW 1.0 mph 2.0 mph 82% 0.00 in 0 W/m2
06:38 17.0 °F 12.5 °F 30.27 in West 1.0 mph 3.0 mph 82% 0.00 in 0 W/m2
06:43 17.0 °F 12.2 °F 30.27 in West 1.0 mph 4.0 mph 81% 0.00 in 0 W/m2
06:49 17.0 °F 11.9 °F 30.28 in WSW 1.0 mph 1.0 mph 80% 0.00 in 0 W/m2
06:55 17.0 °F 11.6 °F 30.28 in WSW 1.0 mph 6.0 mph 79% 0.00 in 0 W/m2
07:02 16.8 °F 11.1 °F 30.28 in WSW 1.0 mph 2.0 mph 78% 0.00 in 0 W/m2
07:08 16.7 °F 11.0 °F 30.28 in WSW 2.0 mph 4.0 mph 78% 0.00 in 0 W/m2
07:14 16.8 °F 11.1 °F 30.28 in West 3.0 mph 3.0 mph 78% 0.00 in 0 W/m2
07:19 16.8 °F 10.5 °F 30.28 in West 3.0 mph 3.0 mph 76% 0.00 in 0 W/m2
07:25 16.8 °F 10.5 °F 30.28 in SW 2.0 mph 3.0 mph 76% 0.00 in 0 W/m2
07:32 16.7 °F 10.4 °F 30.28 in West 2.0 mph 4.0 mph 76% 0.00 in 0 W/m2
07:43 16.6 °F 10.3 °F 30.29 in WSW 2.0 mph 3.0 mph 76% 0.00 in 5 W/m2
07:49 16.6 °F 10.3 °F 30.28 in West 2.0 mph 4.0 mph 76% 0.00 in 7 W/m2
07:56 16.9 °F 10.6 °F 30.28 in West 2.0 mph 4.0 mph 76% 0.00 in 7 W/m2
08:02 17.0 °F 10.7 °F 30.28 in WSW 2.0 mph 3.0 mph 76% 0.00 in 9 W/m2
08:08 17.3 °F 11.0 °F 30.28 in WSW 2.0 mph 3.0 mph 76% 0.00 in 12 W/m2
08:13 17.5 °F 11.2 °F 30.29 in West 3.0 mph 5.0 mph 76% 0.00 in 14 W/m2
08:19 17.9 °F 11.3 °F 30.29 in West 3.0 mph 4.0 mph 75% 0.00 in 21 W/m2
08:26 18.3 °F 11.4 °F 30.30 in SW 3.0 mph 6.0 mph 74% 0.00 in 28 W/m2
08:32 18.8 °F 11.6 °F 30.29 in WSW 3.0 mph 4.0 mph 73% 0.00 in 39 W/m2
08:38 19.3 °F 11.4 °F 30.30 in West 3.0 mph 5.0 mph 71% 0.00 in 51 W/m2
08:43 19.7 °F 11.5 °F 30.30 in WSW 4.0 mph 5.0 mph 70% 0.00 in 46 W/m2
08:50 20.1 °F 11.6 °F 30.29 in WSW 5.0 mph 5.0 mph 69% 0.00 in 47 W/m2
08:55 20.4 °F 11.5 °F 30.29 in WSW 5.0 mph 15.0 mph 68% 0.00 in 107 W/m2
09:02 20.8 °F 11.6 °F 30.30 in SW 6.0 mph 6.0 mph 67% 0.00 in 239 W/m2
09:08 21.0 °F 12.1 °F 30.30 in SSW 6.0 mph 12.0 mph 68% 0.00 in 297 W/m2
09:13 21.1 °F 11.5 °F 30.30 in SW 7.0 mph 13.0 mph 66% 0.00 in 313 W/m2
09:20 21.4 °F 11.5 °F 30.31 in West 7.0 mph 7.0 mph 65% 0.00 in 327 W/m2
09:25 21.5 °F 11.5 °F 30.31 in West 7.0 mph 10.0 mph 65% 0.00 in 338 W/m2
09:32 21.6 °F 11.3 °F 30.31 in WSW 6.0 mph 10.0 mph 64% 0.00 in 355 W/m2
09:38 21.6 °F 11.3 °F 30.32 in WSW 7.0 mph 10.0 mph 64% 0.00 in 366 W/m2
09:44 21.9 °F 11.2 °F 30.32 in West 7.0 mph 7.0 mph 63% 0.00 in 366 W/m2
09:50 22.2 °F 11.5 °F 30.32 in WSW 6.0 mph 6.0 mph 63% 0.00 in 390 W/m2
09:55 22.3 °F 10.9 °F 30.32 in West 6.0 mph 11.0 mph 61% 0.00 in 403 W/m2
10:02 22.3 °F 11.2 °F 30.32 in WSW 6.0 mph 6.0 mph 62% 0.00 in 417 W/m2
10:08 22.6 °F 11.2 °F 30.31 in West 5.0 mph 8.0 mph 61% 0.12 in 427 W/m2
10:13 22.4 °F 10.6 °F 30.32 in WNW 5.0 mph 8.0 mph 60% 0.09 in 436 W/m2
10:19 23.0 °F 11.2 °F 30.32 in West 5.0 mph 5.0 mph 60% 0.05 in 446 W/m2
10:26 23.0 °F 10.8 °F 30.32 in West 5.0 mph 8.0 mph 59% 0.05 in 459 W/m2
10:32 22.9 °F 11.1 °F 30.32 in WSW 5.0 mph 11.0 mph 60% 0.05 in 469 W/m2
10:38 23.0 °F 10.8 °F 30.32 in West 5.0 mph 11.0 mph 59% 0.05 in 478 W/m2
10:43 22.6 °F 10.4 °F 30.32 in WNW 6.0 mph 10.0 mph 59% 0.05 in 489 W/m2
10:50 22.5 °F 10.3 °F 30.32 in SSW 7.0 mph 7.0 mph 59% 0.00 in 496 W/m2
10:55 22.2 °F 10.8 °F 30.32 in SSW 7.0 mph 7.0 mph 61% 0.00 in 496 W/m2
11:02 22.4 °F 10.2 °F 30.32 in SW 7.0 mph 11.0 mph 59% 0.00 in 522 W/m2
11:08 22.6 °F 10.4 °F 30.32 in SW 7.0 mph 11.0 mph 59% 0.00 in 536 W/m2
11:13 22.8 °F 10.6 °F 30.32 in WNW 6.0 mph 6.0 mph 59% 0.00 in 575 W/m2
11:20 23.0 °F 10.8 °F 30.32 in WSW 6.0 mph 6.0 mph 59% 0.00 in 619 W/m2
11:25 23.2 °F 10.6 °F 30.32 in WNW 6.0 mph 9.0 mph 58% 0.00 in 621 W/m2
11:32 23.1 °F 10.9 °F 30.32 in West 6.0 mph 10.0 mph 59% 0.00 in 534 W/m2
11:38 23.4 °F 10.4 °F 30.31 in WSW 7.0 mph 10.0 mph 57% 0.00 in 694 W/m2
11:43 23.7 °F 10.7 °F 30.31 in WNW 7.0 mph 9.0 mph 57% 0.00 in 710 W/m2
11:49 24.0 °F 10.6 °F 30.31 in South 7.0 mph 7.0 mph 56% 0.00 in 592 W/m2
11:56 23.2 °F 9.8 °F 30.31 in West 7.0 mph 7.0 mph 56% 0.00 in 580 W/m2
12:02 24.1 °F 10.6 °F 30.30 in West 5.0 mph 6.0 mph 56% 0.00 in 636 W/m2
12:08 24.3 °F 10.8 °F 30.30 in WNW 6.0 mph 17.0 mph 56% 0.00 in 642 W/m2
12:14 24.1 °F 10.2 °F 30.30 in WNW 5.0 mph 7.0 mph 55% 0.00 in 499 W/m2
12:19 24.0 °F 10.6 °F 30.29 in West 6.0 mph 6.0 mph 56% 0.00 in 392 W/m2
12:25 24.6 °F 11.1 °F 30.29 in West 5.0 mph 6.0 mph 56% 0.00 in 392 W/m2
12:32 25.1 °F 11.6 °F 30.28 in WSW 4.0 mph 10.0 mph 56% 0.00 in 795 W/m2
12:38 25.1 °F 11.2 °F 30.27 in WSW 5.0 mph 10.0 mph 55% 0.00 in 670 W/m2
12:44 25.6 °F 11.2 °F 30.27 in West 5.0 mph 8.0 mph 54% 0.00 in 652 W/m2
12:49 25.0 °F 10.7 °F 30.27 in WNW 7.0 mph 7.0 mph 54% 0.00 in 257 W/m2
12:55 25.9 °F 11.5 °F 30.27 in WNW 5.0 mph 7.0 mph 54% 0.00 in 763 W/m2
13:02 26.4 °F 12.4 °F 30.26 in South 4.0 mph 7.0 mph 55% 0.00 in 555 W/m2
13:08 27.3 °F 12.8 °F 30.26 in WNW 3.0 mph 7.0 mph 54% 0.00 in 584 W/m2
13:13 26.2 °F 12.6 °F 30.26 in NW 4.0 mph 8.0 mph 56% 0.00 in 408 W/m2
13:19 27.2 °F 11.9 °F 30.25 in West 4.0 mph 6.0 mph 52% 0.00 in 700 W/m2
13:25 26.4 °F 12.4 °F 30.25 in West 5.0 mph 9.0 mph 55% 0.00 in 281 W/m2
13:32 25.9 °F 12.3 °F 30.25 in NW 5.0 mph 7.0 mph 56% 0.00 in 295 W/m2
13:38 26.1 °F 12.5 °F 30.25 in WSW 4.0 mph 7.0 mph 56% 0.00 in 255 W/m2
13:43 25.9 °F 12.3 °F 30.25 in NW 4.0 mph 8.0 mph 56% 0.00 in 306 W/m2
13:49 26.3 °F 12.3 °F 30.24 in NW 4.0 mph 5.0 mph 55% 0.00 in 726 W/m2
13:56 27.0 °F 13.0 °F 30.24 in WNW 4.0 mph 5.0 mph 55% 0.00 in 269 W/m2
14:02 26.4 °F 12.0 °F 30.24 in West 4.0 mph 5.0 mph 54% 0.00 in 251 W/m2
14:08 26.5 °F 12.9 °F 30.24 in SW 3.0 mph 5.0 mph 56% 0.00 in 239 W/m2
14:14 27.0 °F 12.5 °F 30.24 in WSW 4.0 mph 12.0 mph 54% 0.00 in 214 W/m2
14:19 26.7 °F 12.7 °F 30.24 in West 5.0 mph 6.0 mph 55% 0.00 in 183 W/m2
14:25 26.6 °F 12.6 °F 30.24 in West 4.0 mph 6.0 mph 55% 0.00 in 399 W/m2
14:32 26.7 °F 13.1 °F 30.24 in WSW 5.0 mph 6.0 mph 56% 0.00 in 223 W/m2
14:38 27.0 °F 13.4 °F 30.23 in SW 4.0 mph 11.0 mph 56% 0.00 in 229 W/m2
14:44 26.9 °F 12.9 °F 30.24 in WNW 5.0 mph 8.0 mph 55% 0.00 in 192 W/m2
14:49 27.2 °F 13.6 °F 30.23 in West 5.0 mph 5.0 mph 56% 0.00 in 190 W/m2
14:56 27.1 °F 13.5 °F 30.23 in WSW 3.0 mph 8.0 mph 56% 0.00 in 193 W/m2
15:02 27.3 °F 14.1 °F 30.23 in WNW 4.0 mph 5.0 mph 57% 0.00 in 174 W/m2
15:08 27.3 °F 14.1 °F 30.23 in WNW 3.0 mph 6.0 mph 57% 0.00 in 316 W/m2
15:13 27.3 °F 13.7 °F 30.23 in WNW 4.0 mph 7.0 mph 56% 0.00 in 171 W/m2
15:20 27.1 °F 14.3 °F 30.23 in WNW 3.0 mph 4.0 mph 58% 0.00 in 113 W/m2
15:25 27.1 °F 14.7 °F 30.23 in WNW 2.0 mph 4.0 mph 59% 0.00 in 179 W/m2
15:32 27.2 °F 14.8 °F 30.23 in WNW 3.0 mph 3.0 mph 59% 0.00 in 118 W/m2
15:38 27.1 °F 14.7 °F 30.23 in West 3.0 mph 3.0 mph 59% 0.00 in 113 W/m2
15:44 27.0 °F 14.6 °F 30.23 in WSW 3.0 mph 3.0 mph 59% 0.00 in 95 W/m2
15:50 26.9 °F 14.9 °F 30.23 in WSW 2.0 mph 2.0 mph 60% 0.00 in 84 W/m2
15:55 27.0 °F 15.3 °F 30.23 in WNW 2.0 mph 4.0 mph 61% 0.00 in 67 W/m2
16:02 27.0 °F 15.3 °F 30.23 in WNW 2.0 mph 2.0 mph 61% 0.00 in 62 W/m2
16:08 27.0 °F 14.9 °F 30.23 in WSW 3.0 mph 4.0 mph 60% 0.00 in 53 W/m2
16:13 27.0 °F 15.3 °F 30.22 in WSW 3.0 mph 5.0 mph 61% 0.00 in 35 W/m2
16:19 27.1 °F 15.4 °F 30.23 in SW 3.0 mph 4.0 mph 61% 0.00 in 30 W/m2
16:26 27.1 °F 15.8 °F 30.22 in West 4.0 mph 5.0 mph 62% 0.00 in 25 W/m2
16:32 27.1 °F 15.8 °F 30.22 in WNW 4.0 mph 6.0 mph 62% 0.00 in 28 W/m2
16:38 27.1 °F 15.8 °F 30.22 in WSW 4.0 mph 6.0 mph 62% 0.00 in 19 W/m2
16:43 27.1 °F 16.2 °F 30.22 in WNW 3.0 mph 3.0 mph 63% 0.00 in 21 W/m2
16:49 27.1 °F 15.8 °F 30.22 in West 3.0 mph 3.0 mph 62% 0.00 in 23 W/m2
16:56 27.1 °F 16.2 °F 30.22 in WNW 2.0 mph 5.0 mph 63% 0.00 in 18 W/m2
17:02 27.1 °F 15.8 °F 30.22 in West 3.0 mph 3.0 mph 62% 0.00 in 12 W/m2
17:08 27.1 °F 16.2 °F 30.22 in West 2.0 mph 4.0 mph 63% 0.00 in 9 W/m2
17:13 27.0 °F 16.1 °F 30.22 in WNW 2.0 mph 5.0 mph 63% 0.00 in 7 W/m2
17:19 26.9 °F 15.6 °F 30.22 in West 2.0 mph 2.0 mph 62% 0.00 in 0 W/m2
17:25 26.8 °F 15.5 °F 30.22 in WNW 2.0 mph 2.0 mph 62% 0.00 in 0 W/m2
17:32 26.8 °F 15.5 °F 30.22 in West 2.0 mph 3.0 mph 62% 0.00 in 0 W/m2
17:38 26.9 °F 15.6 °F 30.22 in West 3.0 mph 3.0 mph 62% 0.00 in 0 W/m2
17:43 26.9 °F 15.2 °F 30.22 in SW 2.0 mph 3.0 mph 61% 0.00 in 0 W/m2
17:49 27.0 °F 14.9 °F 30.22 in WSW 3.0 mph 3.0 mph 60% 0.00 in 0 W/m2
17:56 27.0 °F 14.9 °F 30.22 in WSW 2.0 mph 3.0 mph 60% 0.00 in 0 W/m2
18:02 26.7 °F 14.7 °F 30.22 in WSW 1.0 mph 2.0 mph 60% 0.00 in 0 W/m2
18:08 26.5 °F 14.5 °F 30.22 in WSW 1.0 mph 3.0 mph 60% 0.00 in 0 W/m2
18:14 26.4 °F 14.8 °F 30.22 in WSW 2.0 mph 4.0 mph 61% 0.00 in 0 W/m2
18:19 26.4 °F 14.4 °F 30.21 in West 3.0 mph 3.0 mph 60% 0.00 in 0 W/m2
18:25 26.2 °F 14.6 °F 30.21 in West 2.0 mph 3.0 mph 61% 0.00 in 0 W/m2
18:32 25.9 °F 14.3 °F 30.21 in West 1.0 mph 2.0 mph 61% 0.00 in 0 W/m2
18:38 25.7 °F 14.5 °F 30.21 in WSW 2.0 mph 3.0 mph 62% 0.00 in 0 W/m2
18:44 25.5 °F 14.3 °F 30.21 in WSW 1.0 mph 2.0 mph 62% 0.00 in 0 W/m2
18:50 25.1 °F 14.3 °F 30.21 in Calm     63% 0.00 in 0 W/m2
18:55 25.0 °F 14.2 °F 30.21 in Calm     63% 0.00 in 0 W/m2
19:02 24.7 °F 14.2 °F 30.21 in WSW 1.0 mph 3.0 mph 64% 0.00 in 0 W/m2
19:08 24.4 °F 14.0 °F 30.21 in Calm   3.0 mph 64% 0.00 in 0 W/m2
19:13 24.0 °F 13.9 °F 30.21 in Calm     65% 0.00 in 0 W/m2
19:19 23.6 °F 13.5 °F 30.21 in Calm     65% 0.00 in 0 W/m2
19:26 23.0 °F 13.7 °F 30.21 in Calm     67% 0.00 in 0 W/m2
19:32 22.1 °F 12.8 °F 30.21 in Calm     67% 0.00 in 0 W/m2
19:38 21.1 °F 12.5 °F 30.20 in Calm     69% 0.00 in 0 W/m2
19:43 20.6 °F 12.4 °F 30.20 in Calm     70% 0.00 in 0 W/m2
19:49 20.1 °F 12.2 °F 30.20 in Calm     71% 0.00 in 0 W/m2
19:56 19.5 °F 11.9 °F 30.20 in Calm     72% 0.00 in 0 W/m2
20:02 18.9 °F 11.7 °F 30.20 in Calm     73% 0.00 in 0 W/m2
20:08 18.4 °F 11.2 °F 30.20 in Calm     73% 0.00 in 0 W/m2
20:13 17.7 °F 10.8 °F 30.19 in Calm     74% 0.00 in 0 W/m2
20:19 17.3 °F 10.7 °F 30.19 in Calm     75% 0.00 in 0 W/m2
20:26 17.0 °F 10.7 °F 30.19 in Calm     76% 0.00 in 0 W/m2
20:32 16.8 °F 10.8 °F 30.19 in Calm     77% 0.00 in 0 W/m2
20:38 16.5 °F 10.5 °F 30.19 in Calm     77% 0.00 in 0 W/m2
20:43 16.2 °F 10.3 °F 30.18 in Calm     77% 0.00 in 0 W/m2
20:50 15.6 °F 10.0 °F 30.19 in Calm     78% 0.00 in 0 W/m2
20:55 15.4 °F 10.1 °F 30.18 in Calm     79% 0.00 in 0 W/m2
21:02 15.3 °F 10.2 °F 30.18 in Calm     80% 0.00 in 0 W/m2
21:08 15.2 °F 10.4 °F 30.18 in Calm     81% 0.00 in 0 W/m2
21:13 15.0 °F 10.2 °F 30.18 in Calm     81% 0.00 in 0 W/m2
21:20 14.9 °F 10.4 °F 30.18 in Calm     82% 0.00 in 0 W/m2
21:26 15.0 °F 10.5 °F 30.17 in Calm     82% 0.00 in 0 W/m2
21:32 14.9 °F 10.4 °F 30.17 in Calm     82% 0.00 in 0 W/m2
21:38 14.9 °F 10.4 °F 30.17 in Calm     82% 0.00 in 0 W/m2
21:44 15.0 °F 10.8 °F 30.17 in Calm     83% 0.00 in 0 W/m2
21:50 15.0 °F 10.8 °F 30.17 in Calm     83% 0.00 in 0 W/m2
21:55 15.0 °F 10.8 °F 30.16 in Calm     83% 0.00 in 0 W/m2
22:02 15.1 °F 10.9 °F 30.16 in Calm     83% 0.00 in 0 W/m2
22:08 15.3 °F 11.1 °F 30.16 in Calm     83% 0.00 in 0 W/m2
22:13 15.5 °F 11.3 °F 30.16 in Calm     83% 0.00 in 0 W/m2
22:19 15.8 °F 11.6 °F 30.15 in Calm     83% 0.00 in 0 W/m2
22:26 16.1 °F 11.8 °F 30.16 in Calm     83% 0.00 in 0 W/m2
22:32 16.3 °F 12.0 °F 30.16 in Calm     83% 0.00 in 0 W/m2
22:38 16.8 °F 12.5 °F 30.16 in Calm     83% 0.00 in 0 W/m2
22:43 17.1 °F 12.8 °F 30.16 in Calm     83% 0.00 in 0 W/m2
22:50 17.5 °F 12.9 °F 30.16 in Calm     82% 0.00 in 0 W/m2
22:56 18.0 °F 13.2 °F 30.15 in Calm     81% 0.00 in 0 W/m2
23:02 18.6 °F 13.5 °F 30.15 in Calm     80% 0.00 in 0 W/m2
23:08 18.9 °F 13.5 °F 30.15 in Calm     79% 0.00 in 0 W/m2
23:14 19.2 °F 13.5 °F 30.14 in Calm     78% 0.00 in 0 W/m2
23:19 19.2 °F 13.8 °F 30.14 in Calm     79% 0.00 in 0 W/m2
23:25 18.9 °F 13.2 °F 30.14 in Calm     78% 0.00 in 0 W/m2
23:32 18.7 °F 13.0 °F 30.13 in Calm     78% 0.00 in 0 W/m2
23:38 18.6 °F 12.9 °F 30.13 in Calm     78% 0.00 in 0 W/m2
23:43 18.4 °F 12.4 °F 30.13 in Calm     77% 0.00 in 0 W/m2
23:49 18.2 °F 12.5 °F 30.13 in Calm     78% 0.00 in 0 W/m2
23:56 18.0 °F 12.3 °F 30.13 in Calm     78% 0.00 in 0 W/m2
Country Meadow, Clay, NY, USA
Compliments of Weather Underground - 2 mb